This is the latest recevied weather packets stored in our database for station/object EA2FT-7. If no packets are shown the sender has not sent any weather packets the latest 1 day(s).
| Time | Temp. | Humidity | Pressure | Rain* | Wind** | Luminosity | Snow |
|---|---|---|---|---|---|---|---|
| 1836274608 | 32.22° C | 29% | 975.3 hPa | - | - | - | - |
| 1836274458 | 32.22° C | 29% | 975.3 hPa | - | - | - | - |
| 1836274308 | 32.22° C | 29% | 975.3 hPa | - | - | - | - |
| 1836274158 | 32.22° C | 29% | 975.2 hPa | - | - | - | - |
| 1836274008 | 32.22° C | 29% | 975.2 hPa | - | - | - | - |
| 1778046840 | 28.89° C | 32% | 980.5 hPa | - | - | - | - |
| 1778046234 | 26.67° C | 33% | 969.8 hPa | - | - | - | - |
| 1777998603 | 33.33° C | 26% | 961.6 hPa | - | - | - | - |
| 1777998303 | 33.33° C | 26% | 961.5 hPa | - | - | - | - |
| 1777998004 | 33.33° C | 25% | 961.5 hPa | - | - | - | - |
| 1777997704 | 33.33° C | 25% | 961.4 hPa | - | - | - | - |
| 1777997404 | 33.89° C | 25% | 961.4 hPa | - | - | - | - |
| 1777997103 | 34.44° C | 25% | 961.4 hPa | - | - | - | - |
| 1777996804 | 36.11° C | 23% | 961.4 hPa | - | - | - | - |
| 1777995304 | 36.11° C | 25% | 962.6 hPa | - | - | - | - |
| 1777994997 | 34.44° C | 27% | 959.1 hPa | - | - | - | - |
| 1777994697 | 34.44° C | 27% | 959 hPa | - | - | - | - |
| 1777994396 | 35° C | 26% | 959 hPa | - | - | - | - |
| 1777994096 | 35.56° C | 26% | 959 hPa | - | - | - | - |
| 1777993796 | 36.67° C | 25% | 959.1 hPa | - | - | - | - |
| 1777993496 | 38.33° C | 25% | 960.5 hPa | - | - | - | - |
| 1777993192 | 37.22° C | 27% | 961.8 hPa | - | - | - | - |
| 1777992893 | 39.44° C | 26% | 962 hPa | - | - | - | - |
| 1777992293 | 37.78° C | 28% | 969 hPa | - | - | - | - |
| 1777991679 | 34.44° C | 32% | 986 hPa | - | - | - | - |
* Rain since midnight (hover to see other rain measurements)
** Current wind speed in m/s (hover to see current wind gust speed)